Home   Weather   Nablus   Past weeks

Flag for Palestinian Territories Past Weather in Nablus, West Bank, Palestinian Territories — Yesterday and Last 2 Weeks

77 °F


Feels Like: 79 °F
Forecast: 60 / 77 °F
Wind: 3 mph from North

Location: Ben Gurion International Airport

Current Time: Oct 28, 2016 at 7:18:25 PM

Latest Report: Oct 28, 2016 at 6:50 PM

Visibility: 10 mi

Pressure: 30.01 "Hg (28.23 "Hg at 534m altitude)

Humidity: 61%

Dew Point: 63 °F

Location of NablusLocation

Past Weather in Nablus — Graph


Nablus Temperature Yesterday

Maximum temperature yesterday: 90 °F (at 12:20 PM)
Minimum temperature yesterday: 64 °F (at 2:50 AM)
Average temperature yesterday: 75 °F

High & Low Weather Summary for the Past Weeks

High90 °F (Oct 14, 1:20 PM)89% (Oct 14, 11:50 PM)30.07 "Hg (Oct 14, 11:50 PM)
Low63 °F (Oct 16, 6:50 AM)22% (Oct 14, 10:50 AM)29.80 "Hg (Oct 26, 2:20 PM)
Average75 °F61%29.95 "Hg
* Reported Oct 13 5:20 PM — Oct 28 5:50 PM, Nablus, Weather by CustomWeather, © 2016

Note: Actual official high and low records may vary slightly from our data, if they occured in-between our weather recording intervals... More about our weather records


Nablus Weather History for the Previous 24 Hours

Scroll right to see more
Time TempWeatherWind HumidityBarometerVisibility
5:50 PM
Fri, Oct 28
77 °FPassing clouds.5 mph61%30.01 "HgN/A
5:20 PM79 °FPassing clouds.9 mph58%29.98 "HgN/A
4:50 PM79 °FPassing clouds.10 mph58%29.98 "HgN/A
4:20 PM81 °FPassing clouds.13 mph54%29.98 "HgN/A
3:50 PM81 °FPassing clouds.12 mph54%29.98 "HgN/A
3:20 PM82 °FPassing clouds.13 mph48%29.95 "HgN/A
2:50 PM84 °FPassing clouds.13 mph43%29.95 "HgN/A
2:20 PM86 °FPassing clouds.8 mph40%29.95 "HgN/A
1:50 PM84 °FPassing clouds.9 mph40%29.95 "HgN/A
1:20 PM84 °FPassing clouds.10 mph40%29.95 "HgN/A
12:50 PM86 °FPassing clouds.9 mph35%29.98 "HgN/A
12:20 PM86 °FPassing clouds.8 mph35%29.98 "HgN/A
11:50 AM84 °FSunny.5 mph37%29.98 "Hg10 mi
11:20 AM84 °FSunny.3 mph37%29.98 "Hg10 mi
10:50 AM82 °FSunny.3 mph37%29.98 "Hg10 mi
10:20 AM81 °FSunny.2 mph45%29.98 "Hg10 mi
9:50 AM79 °FSunny.2 mph51%30.01 "Hg10 mi
9:20 AM77 °FSunny.1 mph54%29.98 "Hg10 mi
8:50 AM73 °FSunny.2 mph65%29.98 "Hg10 mi
8:20 AM72 °FSunny.2 mph69%29.98 "Hg10 mi
7:50 AM70 °FSunny.1 mph73%29.98 "Hg10 mi
7:20 AM70 °FSunny.2 mph73%29.98 "Hg10 mi
6:50 AM70 °FClear.7 mph73%29.98 "Hg10 mi
6:20 AM70 °FClear.2 mph73%29.95 "Hg10 mi
5:50 AM70 °FClear.2 mph73%29.95 "Hg10 mi
5:20 AM70 °FClear.5 mph73%29.95 "Hg10 mi
4:50 AM72 °FClear.3 mph69%29.95 "Hg10 mi
4:20 AM70 °FClear.9 mph73%29.92 "Hg10 mi
3:50 AM72 °FClear.6 mph69%29.95 "Hg10 mi
3:20 AM72 °FClear.5 mph73%29.98 "Hg10 mi
2:50 AM73 °FClear.5 mph65%29.98 "Hg10 mi
2:20 AM72 °FClear.6 mph69%29.98 "Hg10 mi
1:50 AM72 °FClear.3 mph73%29.98 "Hg10 mi
1:20 AM73 °FClear.2 mph65%29.98 "Hg10 mi
12:50 AM72 °FClear.3 mph69%29.98 "Hg10 mi
12:20 AM72 °FClear.6 mph73%29.98 "Hg10 mi
11:50 PM
Thu, Oct 27
72 °FClear.8 mph73%29.98 "Hg10 mi
11:20 PM72 °FClear.3 mph73%29.98 "Hg10 mi
10:50 PM73 °FClear.5 mph65%29.95 "Hg10 mi
10:20 PM73 °FClear.8 mph65%29.98 "Hg10 mi
9:50 PM73 °FClear.10 mph65%30.01 "Hg10 mi
9:20 PM73 °FClear.7 mph74%30.01 "Hg10 mi
8:50 PM73 °FClear.10 mph69%30.01 "Hg10 mi
8:20 PM73 °FClear.13 mph69%29.98 "Hg10 mi
7:50 PM73 °FClear.16 mph69%29.98 "Hg10 mi
7:20 PM75 °FClear.16 mph61%29.92 "HgN/A
Weather by CustomWeather, © 2016

See weather overviewHow to use our weather pages